SHU5473 ZYHB-UHWW

Flight info

Callsign SHU5473
Flight time 0h 47m
Altitude 37100
Route KET07D KETOV B451 SANAR SANAR2N
Aircraft A319/M-SDE3FGHIRWY/LB1

Departure

Time 2026-04-23 19:30
Airport Harbin Taiping International Airport (ZYHB)

Arrival

Time 2026-04-23 20:18
Airport Vladivostok International Airport (UHWW)
Time Latitude Longitude Altitude Speed Heading
2026-04-23 18:54 45.62062 126.23857 462 ft 0 kts
2026-04-23 19:18 45.62039 126.23852 462 ft 4 kts
2026-04-23 19:19 45.61988 126.23849 460 ft 4 kts 325°
2026-04-23 19:19 45.61972 126.23871 462 ft 4 kts 308°
2026-04-23 19:20 45.61941 126.23931 461 ft 4 kts 292°
2026-04-23 19:20 45.61938 126.23966 462 ft 4 kts 249°
2026-04-23 19:20 45.61953 126.23996 460 ft 4 kts 219°
2026-04-23 19:20 45.61972 126.24017 459 ft 1 kts 219°
2026-04-23 19:21 45.61973 126.24018 461 ft 0 kts 219°
2026-04-23 19:24 45.61946 126.23987 462 ft 6 kts 219°
2026-04-23 19:25 45.61847 126.23873 460 ft 10 kts 219°
2026-04-23 19:25 45.61740 126.23748 463 ft 10 kts 219°
2026-04-23 19:26 45.61640 126.23609 463 ft 10 kts 224°
2026-04-23 19:26 45.61583 126.23551 462 ft 10 kts 214°
2026-04-23 19:27 45.61473 126.23422 463 ft 10 kts 220°
2026-04-23 19:27 45.61302 126.23365 466 ft 11 kts 129°
2026-04-23 19:28 45.61264 126.23541 464 ft 0 kts 123°
2026-04-23 19:28 45.61259 126.23551 465 ft 4 kts 123°
2026-04-23 19:29 45.61252 126.23629 464 ft 12 kts 85°
2026-04-23 19:29 45.61526 126.24061 462 ft 81 kts 39°
2026-04-23 19:30 45.63010 126.25796 628 ft 176 kts 41°
2026-04-23 19:30 45.63978 126.26947 1176 ft 183 kts 39°
2026-04-23 19:30 45.66392 126.26885 2376 ft 202 kts 321°
2026-04-23 19:31 45.67120 126.25074 2627 ft 227 kts 277°
2026-04-23 19:31 45.66811 126.22815 2887 ft 244 kts 232°
2026-04-23 19:31 45.65514 126.21269 3271 ft 250 kts 192°
2026-04-23 19:31 45.63826 126.21243 3945 ft 245 kts 155°
2026-04-23 19:32 45.62518 126.22715 4736 ft 246 kts 120°
2026-04-23 19:32 45.61906 126.24986 5497 ft 254 kts 102°
2026-04-23 19:32 45.61444 126.27475 6185 ft 266 kts 114°
2026-04-23 19:32 45.60337 126.29625 6885 ft 275 kts 134°
2026-04-23 19:33 45.59009 126.31613 7744 ft 278 kts 133°
2026-04-23 19:33 45.57692 126.33657 8599 ft 281 kts 133°
2026-04-23 19:33 45.55020 126.37864 10161 ft 292 kts 133°
2026-04-23 19:34 45.53602 126.40092 10495 ft 315 kts 133°
2026-04-23 19:34 45.52081 126.42472 10880 ft 332 kts 133°
2026-04-23 19:34 45.48914 126.47384 12253 ft 344 kts 134°
2026-04-23 19:35 45.47284 126.49906 12976 ft 348 kts 134°
2026-04-23 19:35 45.45630 126.52467 13658 ft 353 kts 134°
2026-04-23 19:35 45.43954 126.55059 14331 ft 358 kts 134°
2026-04-23 19:35 45.42255 126.57681 14968 ft 363 kts 134°
2026-04-23 19:36 45.40531 126.60337 15596 ft 367 kts 134°
2026-04-23 19:36 45.38785 126.63023 16206 ft 372 kts 134°
2026-04-23 19:36 45.37017 126.65739 16808 ft 376 kts 134°
2026-04-23 19:36 45.35252 126.68451 17398 ft 381 kts 134°
2026-04-23 19:37 45.33445 126.71230 17991 ft 385 kts 134°
2026-04-23 19:37 45.31622 126.74039 18570 ft 389 kts 134°
2026-04-23 19:37 45.29777 126.76875 18910 ft 392 kts 134°
2026-04-23 19:37 45.27923 126.79721 18995 ft 393 kts 134°
2026-04-23 19:38 45.26063 126.82570 19005 ft 393 kts 134°
2026-04-23 19:38 45.24202 126.85413 19005 ft 393 kts 134°
2026-04-23 19:38 45.22363 126.88218 19004 ft 393 kts 134°
2026-04-23 19:38 45.20499 126.91058 19005 ft 393 kts 134°
2026-04-23 19:39 45.18634 126.93897 19004 ft 393 kts 134°
2026-04-23 19:39 45.17375 126.95814 19004 ft 393 kts 134°
2026-04-23 19:39 45.14900 126.99576 19140 ft 396 kts 134°
2026-04-23 19:39 45.13016 127.02441 19753 ft 399 kts 134°
2026-04-23 19:40 45.11117 127.05324 20330 ft 402 kts 134°
2026-04-23 19:40 45.09851 127.07246 20707 ft 404 kts 134°
2026-04-23 19:40 45.07290 127.11124 21416 ft 409 kts 134°
2026-04-23 19:40 45.05336 127.14072 21941 ft 413 kts 134°
2026-04-23 19:41 45.03364 127.17046 22436 ft 416 kts 134°
2026-04-23 19:41 45.01380 127.20053 22937 ft 420 kts 134°
2026-04-23 19:41 45.00070 127.22070 23266 ft 422 kts 133°
2026-04-23 19:41 44.97425 127.26203 23888 ft 427 kts 133°
2026-04-23 19:42 44.96105 127.28281 24193 ft 429 kts 133°
2026-04-23 19:42 44.94110 127.31418 24635 ft 432 kts 133°
2026-04-23 19:42 44.91400 127.35656 25178 ft 437 kts 133°
2026-04-23 19:42 44.90043 127.37764 25430 ft 439 kts 133°
2026-04-23 19:43 44.87301 127.41998 25945 ft 444 kts 133°
2026-04-23 19:43 44.85209 127.45222 26311 ft 448 kts 133°
2026-04-23 19:43 44.83786 127.47414 26571 ft 450 kts 133°
2026-04-23 19:43 44.81696 127.50633 26929 ft 453 kts 133°
2026-04-23 19:44 44.79560 127.53923 27280 ft 456 kts 133°
2026-04-23 19:44 44.77406 127.57231 27620 ft 460 kts 134°
2026-04-23 19:44 44.75239 127.60555 27965 ft 463 kts 133°
2026-04-23 19:44 44.73051 127.63912 28304 ft 467 kts 134°
2026-04-23 19:45 44.70131 127.68383 28757 ft 471 kts 134°
2026-04-23 19:45 44.68632 127.70672 28969 ft 473 kts 134°
2026-04-23 19:45 44.66394 127.74080 29268 ft 476 kts 134°
2026-04-23 19:45 44.64173 127.77465 29555 ft 479 kts 134°
2026-04-23 19:46 44.61910 127.80918 29866 ft 482 kts 134°
2026-04-23 19:46 44.59630 127.84398 30147 ft 486 kts 134°
2026-04-23 19:46 44.57337 127.87896 30433 ft 489 kts 134°
2026-04-23 19:46 44.55031 127.91411 30724 ft 491 kts 134°
2026-04-23 19:47 44.52712 127.94940 30995 ft 494 kts 134°
2026-04-23 19:47 44.50371 127.98487 31257 ft 497 kts 134°
2026-04-23 19:47 44.48019 128.02037 31522 ft 499 kts 135°
2026-04-23 19:47 44.45686 128.05550 31857 ft 499 kts 134°
2026-04-23 19:48 44.43322 128.09111 32192 ft 500 kts 134°
2026-04-23 19:48 44.40959 128.12674 32554 ft 500 kts 135°
2026-04-23 19:48 44.38596 128.16237 32899 ft 500 kts 135°
2026-04-23 19:48 44.36233 128.19796 33245 ft 500 kts 135°
2026-04-23 19:49 44.33865 128.23362 33579 ft 500 kts 135°
2026-04-23 19:49 44.31497 128.26919 33916 ft 500 kts 135°
2026-04-23 19:49 44.29125 128.30470 34252 ft 500 kts 135°
2026-04-23 19:49 44.26755 128.34010 34609 ft 499 kts 135°
2026-04-23 19:50 44.24418 128.37498 34955 ft 498 kts 135°
2026-04-23 19:50 44.22054 128.41023 35284 ft 497 kts 135°
2026-04-23 19:50 44.19695 128.44542 35610 ft 496 kts 135°
2026-04-23 19:50 44.17339 128.48050 35910 ft 495 kts 136°
2026-04-23 19:51 44.14987 128.51547 36196 ft 494 kts 136°
2026-04-23 19:51 44.12633 128.55039 36463 ft 494 kts 136°
2026-04-23 19:51 44.10288 128.58523 36719 ft 493 kts 136°
2026-04-23 19:51 44.07952 128.62009 36953 ft 492 kts 136°
2026-04-23 19:52 44.05634 128.65487 37021 ft 487 kts 136°
2026-04-23 19:52 44.01092 128.72296 37026 ft 481 kts 136°
2026-04-23 19:53 43.96532 128.79085 37026 ft 480 kts 136°
2026-04-23 19:53 43.91967 128.85856 37038 ft 481 kts 136°
2026-04-23 19:54 43.87386 128.92631 37080 ft 481 kts 136°
2026-04-23 19:54 43.82842 128.99347 37085 ft 481 kts 136°
2026-04-23 19:55 43.78258 129.06110 37084 ft 482 kts 136°
2026-04-23 19:55 43.73666 129.12862 37085 ft 482 kts 136°
2026-04-23 19:56 43.69103 129.19641 37088 ft 481 kts 136°
2026-04-23 19:56 43.64593 129.26395 37086 ft 481 kts 136°
2026-04-23 19:57 43.60050 129.33191 37091 ft 482 kts 136°
2026-04-23 19:57 43.55481 129.39976 37089 ft 484 kts 136°
2026-04-23 19:58 43.50888 129.46764 37102 ft 484 kts 136°
2026-04-23 19:58 43.46336 129.53491 37113 ft 483 kts 136°
2026-04-23 19:59 43.41744 129.60275 36344 ft 491 kts 136°
2026-04-23 19:59 43.39382 129.63746 35353 ft 501 kts 135°
2026-04-23 19:59 43.37010 129.67231 34820 ft 497 kts 135°
2026-04-23 19:59 43.34652 129.70698 34242 ft 496 kts 134°
2026-04-23 20:00 43.32501 129.74386 33697 ft 494 kts 123°
2026-04-23 20:00 43.30826 129.78475 33214 ft 489 kts 112°
2026-04-23 20:00 43.29670 129.82824 32706 ft 482 kts 102°
2026-04-23 20:00 43.29049 129.87247 32231 ft 474 kts 91°
2026-04-23 20:01 43.28848 129.91727 31756 ft 469 kts 88°
2026-04-23 20:01 43.28687 129.96185 31290 ft 465 kts 88°
2026-04-23 20:01 43.28520 130.00593 30828 ft 462 kts 88°
2026-04-23 20:01 43.28349 130.04974 30379 ft 458 kts 88°
2026-04-23 20:02 43.28177 130.09319 29925 ft 454 kts 88°
2026-04-23 20:02 43.28004 130.13631 29495 ft 450 kts 88°
2026-04-23 20:02 43.27832 130.17901 29060 ft 446 kts 88°
2026-04-23 20:02 43.27662 130.22127 28652 ft 442 kts 88°
2026-04-23 20:03 43.27494 130.26322 28243 ft 438 kts 88°
2026-04-23 20:03 43.27328 130.30426 27832 ft 435 kts 88°
2026-04-23 20:03 43.27158 130.34559 27418 ft 432 kts 88°
2026-04-23 20:03 43.26987 130.38664 27006 ft 430 kts 88°
2026-04-23 20:04 43.26817 130.42745 26582 ft 428 kts 88°
2026-04-23 20:04 43.26649 130.46803 26175 ft 425 kts 88°
2026-04-23 20:04 43.26480 130.50846 25735 ft 423 kts 88°
2026-04-23 20:04 43.26308 130.54865 25299 ft 421 kts 88°
2026-04-23 20:05 43.26134 130.58862 24870 ft 419 kts 88°
2026-04-23 20:05 43.25963 130.62785 24421 ft 416 kts 88°
2026-04-23 20:05 43.25789 130.66734 23975 ft 414 kts 88°
2026-04-23 20:05 43.25614 130.70660 23515 ft 411 kts 88°
2026-04-23 20:06 43.25439 130.74565 23077 ft 409 kts 88°
2026-04-23 20:06 43.25265 130.78448 22641 ft 407 kts 88°
2026-04-23 20:06 43.25090 130.82320 22201 ft 406 kts 88°
2026-04-23 20:06 43.24913 130.86172 21771 ft 403 kts 88°
2026-04-23 20:07 43.24735 130.89989 21349 ft 400 kts 88°
2026-04-23 20:07 43.24562 130.93700 21127 ft 390 kts 88°
2026-04-23 20:07 43.24389 130.97354 21155 ft 382 kts 88°
2026-04-23 20:07 43.24220 131.00985 21157 ft 381 kts 88°
2026-04-23 20:08 43.24052 131.04612 21149 ft 381 kts 88°
2026-04-23 20:08 43.23883 131.08235 21162 ft 381 kts 88°
2026-04-23 20:08 43.23714 131.11862 21159 ft 381 kts 88°
2026-04-23 20:08 43.23539 131.15490 21165 ft 381 kts 88°
2026-04-23 20:09 43.23363 131.19112 20735 ft 381 kts 88°
2026-04-23 20:09 43.23169 131.22742 19668 ft 391 kts 89°
2026-04-23 20:09 43.22924 131.26469 18890 ft 392 kts 90°
2026-04-23 20:09 43.22650 131.30164 18217 ft 389 kts 90°
2026-04-23 20:10 43.22367 131.33829 17525 ft 384 kts 90°
2026-04-23 20:10 43.22403 131.37388 17166 ft 360 kts 73°
2026-04-23 20:10 43.22866 131.40683 16770 ft 348 kts 71°
2026-04-23 20:10 43.23341 131.43907 16235 ft 342 kts 71°
2026-04-23 20:11 43.23821 131.47086 15688 ft 339 kts 70°
2026-04-23 20:11 43.24294 131.50190 15124 ft 335 kts 71°
2026-04-23 20:11 43.24772 131.53299 14549 ft 332 kts 71°
2026-04-23 20:11 43.25247 131.56379 14027 ft 328 kts 71°
2026-04-23 20:12 43.25713 131.59418 13504 ft 323 kts 71°
2026-04-23 20:12 43.26172 131.62427 12959 ft 320 kts 71°
2026-04-23 20:12 43.26624 131.65404 12404 ft 317 kts 72°
2026-04-23 20:12 43.27072 131.68354 11853 ft 314 kts 72°
2026-04-23 20:13 43.27511 131.71271 11296 ft 311 kts 73°
2026-04-23 20:13 43.27940 131.74119 10770 ft 307 kts 73°
2026-04-23 20:13 43.28366 131.76963 10281 ft 300 kts 74°
2026-04-23 20:13 43.28758 131.79777 9547 ft 304 kts 79°
2026-04-23 20:14 43.28914 131.82696 8748 ft 309 kts 84°
2026-04-23 20:14 43.29038 131.85642 7941 ft 310 kts 84°
2026-04-23 20:14 43.29171 131.88594 7137 ft 310 kts 84°
2026-04-23 20:14 43.29535 131.91478 6360 ft 305 kts 70°
2026-04-23 20:15 43.30207 131.94126 5881 ft 290 kts 65°
2026-04-23 20:15 43.31164 131.96565 4789 ft 298 kts 54°
2026-04-23 20:15 43.32447 131.98849 3668 ft 306 kts 50°
2026-04-23 20:15 43.33767 132.01146 2520 ft 311 kts 51°
2026-04-23 20:16 43.35079 132.03571 1144 ft 320 kts 57°
2026-04-23 20:16 43.36143 132.06153 820 ft 289 kts 63°
2026-04-23 20:16 43.37032 132.08393 605 ft 244 kts 60°
2026-04-23 20:16 43.37822 132.10241 397 ft 206 kts 60°
2026-04-23 20:17 43.38445 132.11840 233 ft 177 kts 62°
2026-04-23 20:17 43.39001 132.13241 113 ft 160 kts 61°
2026-04-23 20:17 43.39504 132.14485 79 ft 136 kts 61°
2026-04-23 20:17 43.39902 132.15474 64 ft 98 kts 61°
2026-04-23 20:18 43.40149 132.16085 67 ft 48 kts 61°
2026-04-23 20:18 43.40237 132.16303 61 ft 15 kts 61°
2026-04-23 20:18 43.40288 132.16429 61 ft 16 kts 60°
2026-04-23 20:18 43.40344 132.16566 59 ft 17 kts 63°
2026-04-23 20:19 43.40403 132.16721 65 ft 19 kts 61°
2026-04-23 20:19 43.40404 132.16880 68 ft 18 kts 142°
2026-04-23 20:19 43.40292 132.16964 66 ft 19 kts 151°
2026-04-23 20:19 43.40176 132.17047 64 ft 20 kts 153°
2026-04-23 20:20 43.40054 132.17048 69 ft 20 kts 237°
2026-04-23 20:20 43.39991 132.16906 63 ft 16 kts 239°
2026-04-23 20:20 43.39901 132.16891 69 ft 14 kts 153°
2026-04-23 20:20 43.39881 132.16904 65 ft 0 kts 153°